TimePDT,TemperatureF,Dew PointF,Humidity,Sea Level PressureIn,VisibilityMPH,Wind Direction,Wind SpeedMPH,Gust SpeedMPH,PrecipitationIn,Events,Conditions,WindDirDegrees,DateUTC
12:15 AM,50.0,50.0,100,29.81,10.0,NNW,5.8,-,N/A,,Clear,340,2013-07-07 07:15:00
12:35 AM,50.0,50.0,100,29.81,10.0,NNW,5.8,-,N/A,,Clear,340,2013-07-07 07:35:00
12:55 AM,48.2,48.2,100,29.81,9.0,NNW,6.9,-,N/A,,Clear,340,2013-07-07 07:55:00
1:15 AM,48.2,48.2,100,29.81,9.0,NNW,5.8,-,N/A,,Clear,340,2013-07-07 08:15:00
1:35 AM,48.2,48.2,100,29.81,10.0,NNW,4.6,-,N/A,,Clear,340,2013-07-07 08:35:00
1:55 AM,48.2,48.2,100,29.81,10.0,NNW,5.8,-,N/A,,Clear,340,2013-07-07 08:55:00
2:15 AM,50.0,50.0,100,29.81,10.0,North,5.8,-,N/A,,Clear,350,2013-07-07 09:15:00
2:35 AM,48.2,48.2,100,29.81,8.0,NNW,4.6,-,N/A,,Clear,330,2013-07-07 09:35:00
2:55 AM,48.2,48.2,100,29.81,9.0,NW,3.5,-,N/A,,Clear,320,2013-07-07 09:55:00
3:15 AM,48.2,48.2,100,29.81,10.0,NNW,5.8,-,N/A,,Clear,340,2013-07-07 10:15:00
3:35 AM,48.2,48.2,100,29.81,10.0,Calm,Calm,-,N/A,,Clear,0,2013-07-07 10:35:00
3:55 AM,50.0,50.0,100,29.81,10.0,WNW,3.5,-,N/A,,Partly Cloudy,300,2013-07-07 10:55:00
4:15 AM,50.0,50.0,100,29.81,10.0,Calm,Calm,-,N/A,,Mostly Cloudy,0,2013-07-07 11:15:00
4:35 AM,50.0,50.0,100,29.82,10.0,Calm,Calm,-,N/A,,Overcast,0,2013-07-07 11:35:00
4:55 AM,51.8,51.8,100,29.82,10.0,Calm,Calm,-,N/A,,Overcast,0,2013-07-07 11:55:00
5:15 AM,51.8,51.8,100,29.82,10.0,SW,3.5,-,N/A,,Overcast,220,2013-07-07 12:15:00
5:35 AM,53.6,53.6,100,29.82,10.0,Calm,Calm,-,N/A,,Overcast,0,2013-07-07 12:35:00
5:55 AM,53.6,53.6,100,29.83,10.0,WSW,3.5,-,N/A,,Overcast,240,2013-07-07 12:55:00
6:15 AM,53.6,53.6,100,29.83,10.0,WSW,4.6,-,N/A,,Overcast,240,2013-07-07 13:15:00
6:35 AM,53.6,53.6,100,29.84,10.0,Calm,Calm,-,N/A,,Overcast,0,2013-07-07 13:35:00
6:55 AM,53.6,53.6,100,29.84,10.0,WSW,3.5,-,N/A,,Overcast,250,2013-07-07 13:55:00
7:15 AM,53.6,53.6,100,29.84,10.0,West,4.6,-,N/A,,Overcast,260,2013-07-07 14:15:00
7:35 AM,53.6,53.6,100,29.85,10.0,SW,4.6,-,N/A,,Overcast,230,2013-07-07 14:35:00
7:55 AM,55.4,53.6,94,29.85,10.0,WSW,3.5,-,N/A,,Overcast,240,2013-07-07 14:55:00
8:15 AM,55.4,53.6,94,29.86,10.0,Calm,Calm,-,N/A,,Overcast,0,2013-07-07 15:15:00
8:35 AM,55.4,53.6,94,29.86,10.0,West,3.5,-,N/A,,Overcast,270,2013-07-07 15:35:00
8:55 AM,55.4,53.6,94,29.87,10.0,SW,4.6,-,N/A,,Overcast,220,2013-07-07 15:55:00
9:15 AM,57.2,53.6,88,29.86,10.0,Calm,Calm,-,N/A,,Overcast,0,2013-07-07 16:15:00
9:35 AM,57.2,53.6,88,29.86,10.0,Calm,Calm,-,N/A,,Overcast,0,2013-07-07 16:35:00
9:55 AM,59.0,53.6,82,29.86,10.0,Calm,Calm,-,N/A,,Mostly Cloudy,0,2013-07-07 16:55:00
10:15 AM,60.8,53.6,77,29.85,10.0,East,3.5,-,N/A,,Partly Cloudy,90,2013-07-07 17:15:00
10:35 AM,62.6,55.4,77,29.85,10.0,East,3.5,-,N/A,,Clear,100,2013-07-07 17:35:00
10:55 AM,64.4,55.4,73,29.85,10.0,NNE,5.8,-,N/A,,Clear,30,2013-07-07 17:55:00
11:15 AM,64.4,53.6,68,29.85,10.0,ENE,4.6,-,N/A,,Clear,70,2013-07-07 18:15:00
11:35 AM,68.0,55.4,64,29.85,10.0,Calm,Calm,-,N/A,,Clear,0,2013-07-07 18:35:00
11:55 AM,68.0,55.4,64,29.84,10.0,East,3.5,-,N/A,,Clear,100,2013-07-07 18:55:00
12:15 PM,71.6,53.6,53,29.84,10.0,NNW,4.6,-,N/A,,Clear,330,2013-07-07 19:15:00
12:35 PM,73.4,55.4,53,29.84,10.0,South,3.5,-,N/A,,Clear,190,2013-07-07 19:35:00
12:55 PM,73.4,55.4,53,29.83,10.0,SE,4.6,-,N/A,,Clear,130,2013-07-07 19:55:00
1:15 PM,75.2,55.4,50,29.82,10.0,SE,5.8,-,N/A,,Clear,140,2013-07-07 20:15:00
1:35 PM,75.2,55.4,50,29.81,10.0,SE,6.9,-,N/A,,Clear,130,2013-07-07 20:35:00
1:55 PM,77.0,55.4,47,29.81,10.0,SE,6.9,-,N/A,,Clear,130,2013-07-07 20:55:00
2:15 PM,77.0,55.4,47,29.81,-9999.0,SE,6.9,-,N/A,,Clear,130,2013-07-07 21:15:00
2:35 PM,78.8,55.4,44,29.80,-9999.0,SE,9.2,-,N/A,Rain,Light Rain,130,2013-07-07 21:35:00
2:55 PM,78.8,55.4,44,29.80,-9999.0,SE,8.1,-,N/A,,Clear,130,2013-07-07 21:55:00
3:15 PM,80.6,55.4,42,29.80,-9999.0,ESE,6.9,-,N/A,,Clear,110,2013-07-07 22:15:00
3:35 PM,80.6,55.4,42,29.80,-9999.0,East,3.5,-,N/A,,Clear,80,2013-07-07 22:35:00
3:55 PM,80.6,55.4,42,29.80,-9999.0,NE,4.6,-,N/A,,Clear,50,2013-07-07 22:55:00
4:15 PM,82.4,55.4,39,29.79,-9999.0,North,12.7,23.0,N/A,,Clear,360,2013-07-07 23:15:00
4:35 PM,82.4,55.4,39,29.79,-9999.0,North,13.8,-,N/A,,Clear,360,2013-07-07 23:35:00
4:55 PM,80.6,55.4,42,29.78,-9999.0,North,16.1,-,N/A,,Clear,350,2013-07-07 23:55:00
5:15 PM,80.6,55.4,42,29.78,-9999.0,NNW,13.8,-,N/A,,Clear,340,2013-07-08 00:15:00
5:35 PM,78.8,55.4,44,29.78,10.0,NNW,13.8,-,N/A,,Clear,340,2013-07-08 00:35:00
5:55 PM,77.0,53.6,44,29.78,10.0,North,16.1,-,N/A,,Clear,350,2013-07-08 00:55:00
6:15 PM,75.2,53.6,47,29.79,10.0,NNW,15.0,-,N/A,,Clear,340,2013-07-08 01:15:00
6:35 PM,71.6,53.6,53,29.79,10.0,North,16.1,-,N/A,,Clear,350,2013-07-08 01:35:00
6:55 PM,68.0,53.6,60,29.80,10.0,NNW,15.0,-,N/A,,Clear,340,2013-07-08 01:55:00
7:15 PM,68.0,53.6,60,29.80,10.0,North,15.0,-,N/A,,Clear,350,2013-07-08 02:15:00
7:35 PM,64.4,53.6,68,29.81,10.0,North,13.8,18.4,N/A,,Clear,350,2013-07-08 02:35:00
7:55 PM,62.6,53.6,72,29.81,10.0,North,11.5,-,N/A,,Clear,350,2013-07-08 02:55:00
8:15 PM,60.8,53.6,77,29.82,10.0,North,10.4,-,N/A,,Clear,350,2013-07-08 03:15:00
8:35 PM,59.0,53.6,82,29.83,10.0,North,9.2,-,N/A,,Clear,350,2013-07-08 03:35:00
8:55 PM,57.2,53.6,88,29.83,10.0,North,9.2,-,N/A,,Clear,350,2013-07-08 03:55:00
9:15 PM,57.2,53.6,88,29.84,10.0,North,6.9,-,N/A,,Clear,10,2013-07-08 04:15:00
9:35 PM,55.4,53.6,94,29.85,10.0,North,5.8,-,N/A,,Clear,360,2013-07-08 04:35:00
9:55 PM,55.4,53.6,94,29.87,10.0,North,6.9,-,N/A,,Clear,360,2013-07-08 04:55:00
10:15 PM,55.4,55.4,100,29.87,10.0,North,6.9,-,N/A,,Clear,360,2013-07-08 05:15:00
10:35 PM,53.6,53.6,100,29.87,10.0,NNW,8.1,-,N/A,,Clear,340,2013-07-08 05:35:00
10:55 PM,53.6,53.6,100,29.87,10.0,North,5.8,-,N/A,,Clear,350,2013-07-08 05:55:00
11:15 PM,53.6,53.6,100,29.87,10.0,NNW,5.8,-,N/A,,Clear,330,2013-07-08 06:15:00
11:35 PM,51.8,51.8,100,29.88,10.0,NNW,4.6,-,N/A,,Clear,340,2013-07-08 06:35:00
11:55 PM,51.8,51.8,100,29.88,10.0,North,4.6,-,N/A,,Clear,360,2013-07-08 06:55:00